Theta_e
341 342 345 345 346 348 346 349 354 354 355 357 359 359 360 361 360 353 348 351 352 354 355 357 363 365 364 363 363 362 363 360 357
340 343 346 347 345 346 349 348 349 354 358 361 360 359 360 355 355 354 352 354 356 354 359 360 364 364 363 364 365 364 363 359 359
339 342 343 345 348 349 348 348 350 355 358 357 355 354 357 355 355 353 354 354 354 356 359 365 366 365 364 365 365 364 362 364 362
338 342 344 344 347 350 352 351 349 348 352 354 354 355 358 357 356 357 361 359 360 363 365 367 367 367 365 364 364 363 358 361 360
336 341 345 346 346 345 346 347 349 349 351 351 352 354 354 351 354 357 357 357 355 358 362 368 367 365 363 361 363 359 357 357 358
338 340 344 345 344 343 343 343 343 346 347 348 349 349 348 349 351 350 351 352 354 354 356 357 360 364 363 363 362 362 358 357 356
339 339 339 336 335 336 337 338 338 340 339 340 339 342 346 350 351 352 353 354 355 352 354 355 356 355 357 357 357 357 358 356 354
331 331 331 332 331 332 333 334 336 336 336 337 338 339 339 341 345 347 351 352 354 355 352 352 353 352 352 352 351 347 352 356 356
328 326 327 328 329 330 330 330 332 333 334 335 336 337 337 339 341 343 343 346 348 350 350 351 352 350 348 346 342 341 342 348 353
326 325 326 327 328 328 329 329 331 331 333 334 335 335 336 337 338 338 339 341 342 342 343 346 347 350 349 347 348 336 336 340 349
325 325 326 327 327 328 328 329 329 332 332 333 333 333 333 334 333 334 336 337 337 338 339 340 341 344 347 349 347 334 332 335 346
325 326 326 327 328 328 329 329 330 330 329 329 327 325 324 326 327 327 327 327 331 335 335 336 337 339 341 345 346 330 328 335 342
325 326 327 326 328 328 328 328 328 327 324 323 324 322 322 323 323 323 322 324 325 326 329 334 334 335 337 334 341 333 324 331 340
326 326 325 326 327 326 325 325 324 323 322 320 321 321 321 321 322 321 321 320 319 318 319 322 328 334 334 338 337 338 324 321 345
324 324 324 325 324 323 324 322 321 319 319 320 318 318 319 321 323 321 320 321 319 318 317 317 323 325 331 332 339 327 325 321 319
322 322 320 322 321 319 318 319 320 318 320 317 317 318 319 318 319 317 318 315 314 313 314 313 316 322 326 325 330 334 321 319 319
320 319 317 315 313 313 314 319 321 321 318 317 316 316 315 315 316 316 315 314 314 313 312 313 315 319 315 321 326 328 335 336 338
315 312 312 312 311 311 313 316 319 320 318 317 314 314 313 313 314 315 313 314 314 313 314 313 313 314 316 315 320 328 316 316 327
313 312 313 312 311 311 313 315 318 320 320 318 316 313 312 311 312 312 312 312 312 311 307 305 303 301 305 316 311 309 306 303 303
310 313 313 313 312 312 313 315 317 320 318 316 316 314 313 312 311 311 311 311 310 308 311 308 305 303 302 301 301 300 299 299 299
Wind_Speed
11 10 11 11 8 1 3 3 6 5 3 2 3 3 4 4 5 6 7 7 6 6 6 6 7 11 11 12 12 12 11 10 10
10 9 10 8 7 9 6 6 5 7 5 4 4 4 3 4 5 7 7 7 6 7 8 7 8 10 11 11 12 12 12 10 11
12 9 9 10 10 9 6 6 7 6 6 4 3 0 1 3 4 5 7 7 10 10 10 9 8 8 9 9 10 11 11 11 12
10 10 11 11 11 9 8 7 6 6 5 5 4 4 4 4 5 5 6 7 9 9 8 8 7 6 7 7 8 9 9 12 11
9 8 9 11 9 8 7 6 5 6 5 6 6 6 4 4 4 4 6 5 5 5 4 4 5 5 6 7 8 8 10 11 12
9 8 8 8 10 8 7 7 5 6 6 7 7 6 7 8 8 7 6 6 6 5 6 4 5 6 7 8 8 9 10 11 11
10 9 8 10 9 8 8 8 9 8 9 11 11 11 10 10 11 11 9 9 9 9 8 8 6 6 7 7 7 8 9 10 11
11 10 9 8 6 7 8 9 9 10 11 11 12 11 11 10 10 11 11 12 11 10 11 11 10 9 9 8 8 9 9 10 11
9 8 8 6 8 8 9 10 10 11 12 12 12 11 12 11 11 11 10 9 10 11 12 12 11 12 12 11 9 4 5 8 11
9 7 7 7 8 10 10 11 11 12 13 12 12 12 12 12 13 13 13 13 12 11 12 12 13 14 14 13 12 9 10 11 10
7 6 6 7 7 8 10 11 11 11 11 10 11 12 13 14 15 16 16 16 15 13 12 12 11 13 15 14 12 11 12 12 12
6 6 6 7 8 9 9 11 12 12 13 13 12 12 13 15 16 16 15 16 17 17 16 14 13 13 14 15 16 11 13 10 12
5 7 8 9 9 9 10 12 12 12 11 11 13 15 16 15 15 16 17 18 17 15 14 17 14 15 14 16 17 15 13 12 11
6 6 8 8 8 9 9 11 11 12 12 13 14 15 16 15 15 15 15 13 13 14 14 15 17 16 13 15 17 14 12 14 10
5 7 9 8 8 8 9 10 11 11 12 14 14 15 14 15 15 14 13 16 14 12 12 15 15 12 14 12 15 15 13 12 14
6 8 5 7 7 7 7 9 8 10 12 13 14 14 15 16 16 14 13 12 13 11 11 10 12 10 11 10 11 10 16 14 15
6 4 7 7 7 8 8 9 9 9 11 13 14 14 15 13 14 13 12 9 9 10 9 8 9 9 6 9 12 10 9 7 4
6 6 6 7 8 8 10 10 10 10 11 12 13 13 13 12 12 13 12 10 9 9 10 9 9 10 7 9 11 10 7 7 10
6 6 7 7 8 9 10 10 10 9 11 12 12 12 10 10 11 11 10 10 11 8 12 16 16 16 12 11 13 18 16 12 12
4 6 7 7 8 9 9 10 10 11 10 11 11 10 11 9 9 10 11 10 9 12 10 12 11 12 12 5 11 15 17 15 10
Wind_Direction
128 144 138 146 150 207 198 177 151 161 158 191 168 194 206 211 257 268 288 269 270 250 262 267 256 212 218 217 224 218 225 228 225
131 117 104 89 87 86 123 163 132 111 105 97 127 167 180 200 241 260 283 275 253 248 248 260 235 228 224 224 224 221 217 227 224
135 131 127 121 99 94 98 98 91 92 90 81 70 318 263 277 283 232 262 262 253 266 273 259 248 231 225 230 227 223 219 229 223
134 134 125 115 98 88 85 86 81 86 88 88 78 67 24 345 325 295 268 252 248 248 249 254 256 236 232 230 240 232 230 239 244
123 115 119 119 107 92 88 75 53 60 42 46 44 30 355 332 306 303 298 300 309 296 284 249 239 240 244 236 230 229 224 236 237
127 119 113 105 65 56 61 65 42 28 25 23 1 344 337 324 316 310 299 289 297 306 301 276 243 236 242 240 235 224 222 232 242
110 91 87 81 82 65 56 40 33 22 22 11 13 3 351 326 316 311 295 296 288 294 301 293 285 279 276 264 254 244 240 231 237
115 96 81 85 73 49 42 35 10 8 4 0 355 348 341 345 330 317 305 299 294 294 294 294 285 275 268 263 257 247 232 241 244
101 88 78 41 41 29 14 10 358 357 353 349 343 336 330 326 320 317 318 316 300 293 288 278 270 266 261 262 263 104 204 256 261
111 87 60 30 18 11 1 352 354 355 346 343 342 339 335 333 333 329 325 321 313 304 300 291 283 269 260 255 261 218 202 216 243
92 65 40 22 4 355 353 356 359 348 340 343 339 344 343 344 341 332 326 321 315 309 298 293 288 277 276 264 252 229 210 204 245
71 54 28 8 5 353 350 352 351 349 348 351 349 340 341 336 333 325 321 318 320 317 311 303 290 281 280 270 265 240 219 198 233
50 33 19 3 353 345 0 2 357 352 356 352 349 345 336 328 324 326 325 320 318 310 310 302 294 293 287 283 270 264 234 209 245
43 23 7 355 358 9 2 7 355 350 350 348 338 332 327 322 319 317 315 314 311 309 304 299 302 293 286 277 270 271 271 214 243
24 13 17 13 10 6 4 2 358 346 340 342 330 324 319 317 323 328 325 319 313 308 305 302 285 294 281 281 272 241 250 240 220
35 29 16 14 4 2 360 3 353 334 341 336 329 326 325 326 322 320 318 310 301 302 305 303 312 297 302 305 294 304 224 210 212
56 52 33 19 6 6 2 359 350 346 350 337 334 328 324 321 319 324 319 308 302 301 295 291 294 295 302 313 306 296 304 323 341
77 58 37 21 10 3 358 351 345 360 340 343 335 333 333 327 326 325 323 313 305 297 292 293 299 291 291 291 296 299 340 318 308
70 49 30 22 13 3 356 350 343 357 345 349 344 342 337 333 328 334 329 330 328 314 260 273 270 264 253 281 270 281 287 293 282
81 44 28 18 6 3 356 353 350 354 353 344 327 342 339 337 344 342 340 342 338 332 339 328 302 327 321 332 283 310 304 292 288